DateTimeUTC,F1_A11,F1_S11,BsB_S11,BsG_S11,BsR_S11,BbsB_S11,BbsG_S11,BbsR_S11,BaB_A11,BaG_A11,BaR_A11,Tu_S11,T_S11,Uu_S11,U_S11,P_S11,T1_A11
2021-08-01T09:00:00Z,00000200,20000000,,,,,,,0000.23,0000.03,-000.23,18.4,25.1,09.8,06.5,0678.5,31.0
2021-08-01T09:01:00Z,00000200,20000000,,,,,,,0000.07,0000.24,0000.08,18.4,25.1,09.8,06.5,0678.5,31.0
2021-08-01T09:02:00Z,00000200,20000000,,,,,,,0000.03,-000.11,0000.25,18.4,25.1,09.8,06.5,0678.5,31.0
2021-08-01T09:03:00Z,00000200,60000000,,,,,,,0000.29,0000.45,0000.06,18.4,25.1,09.8,06.5,0678.5,31.0
2021-08-01T09:04:00Z,00000200,40000000,0002.68,0002.27,0001.03,0000.77,0000.23,0000.24,0000.97,0000.57,0000.60,18.5,25.0,09.8,06.6,0679.4,31.0
2021-08-01T09:05:00Z,00000200,00000000,0002.24,0001.80,0000.79,0000.41,0000.03,-000.16,0000.52,0000.87,0000.55,18.6,24.9,09.8,06.6,0679.5,31.0
2021-08-01T09:06:00Z,00000200,00000000,0002.19,0001.77,0000.42,0000.89,0000.49,0000.23,0000.81,0000.86,0000.53,18.6,24.9,09.8,06.6,0679.4,31.0
2021-08-01T09:07:00Z,00000200,00000000,0003.48,0002.33,0001.14,0000.05,0000.15,0000.38,0000.66,0000.47,0000.43,18.6,24.9,09.9,06.7,0679.4,31.0
2021-08-01T09:08:00Z,00000200,00000000,0003.17,0001.89,0001.45,0000.61,-000.05,0000.02,0000.93,0000.72,0000.51,18.6,24.9,10.0,06.8,0679.4,31.0
2021-08-01T09:09:00Z,00000200,00000000,0002.69,0001.68,0000.86,-000.03,0000.24,0000.19,0000.31,0000.43,0000.67,18.6,24.9,10.0,06.8,0679.3,31.0
2021-08-01T09:10:00Z,00000200,00000000,0001.76,0001.76,0000.80,0000.01,0000.18,0000.16,0000.69,0000.35,0000.03,18.6,24.9,10.0,06.8,0679.3,31.0
2021-08-01T09:11:00Z,00000200,00000000,0003.11,0001.79,0001.13,0000.40,0000.45,0000.21,0000.76,0000.77,0000.67,18.6,24.9,10.0,06.8,0679.4,31.0
2021-08-01T09:12:00Z,00000200,00000000,0001.71,0001.62,0000.67,0000.43,0000.41,0000.04,0000.40,0000.54,0000.23,18.6,24.9,10.0,06.8,0679.3,31.0
2021-08-01T09:13:00Z,00000200,00000000,0002.30,0001.84,0001.14,-000.14,0000.37,-000.18,0000.55,0000.36,0000.04,18.6,24.9,09.9,06.7,0679.3,31.0
2021-08-01T09:14:00Z,00000200,00000000,0002.71,0001.46,0000.69,0000.31,0000.46,0000.16,0000.45,0000.31,0000.36,18.6,24.9,09.8,06.7,0679.3,31.0
2021-08-01T09:15:00Z,00000200,00000000,0002.07,0001.23,0000.55,0000.36,0000.21,0000.10,0000.54,0000.67,0000.50,18.6,24.9,09.7,06.6,0679.4,31.0
2021-08-01T09:16:00Z,00000200,00000000,0002.62,0001.69,0000.70,0000.49,0000.42,0000.23,0000.88,0000.63,0000.21,18.6,24.9,09.6,06.6,0679.4,31.0
2021-08-01T09:17:00Z,00000200,00000000,0002.61,0002.05,0001.20,0000.47,0000.32,0000.27,0000.66,0000.91,0000.91,18.7,24.9,09.6,06.6,0679.4,31.0
2021-08-01T09:18:00Z,00000200,00000000,0002.53,0001.75,0001.40,0000.29,0000.22,0000.15,0000.50,0000.16,0000.04,18.7,24.9,09.6,06.6,0679.3,31.0
2021-08-01T09:19:00Z,00000200,00000000,0001.85,0001.30,0000.51,0000.94,0000.33,-000.06,0000.75,0000.62,0000.50,18.7,24.9,09.5,06.5,0679.3,31.0
2021-08-01T09:20:00Z,00000200,00000000,0002.56,0001.67,0000.73,0000.08,0000.17,-000.05,0000.66,0000.90,0000.79,18.7,24.9,09.7,06.6,0679.3,31.0
2021-08-01T09:21:00Z,00000200,00000000,0001.72,0001.95,0001.04,0000.49,0000.22,0000.14,0000.62,0000.22,0000.32,18.7,24.9,09.6,06.6,0679.4,31.0
2021-08-01T09:22:00Z,00000200,00000000,0001.98,0001.43,0000.55,0000.75,0000.13,0000.40,0000.49,0000.36,0000.09,18.7,24.9,09.7,06.6,0679.4,31.0
2021-08-01T09:23:00Z,00000200,00000000,0002.91,0001.74,0001.05,0001.08,0000.22,0000.01,0000.18,0000.59,0000.36,18.7,24.9,09.6,06.6,0679.3,31.0
2021-08-01T09:24:00Z,00000200,00000000,0002.62,0001.73,0001.10,0000.49,0000.22,0000.34,0001.06,0000.59,0000.84,18.7,24.9,09.7,06.6,0679.3,31.0
2021-08-01T09:25:00Z,00000200,00000000,0002.62,0001.86,0000.46,0000.44,0000.29,0000.02,0000.71,0000.51,0000.40,18.7,24.9,09.6,06.6,0679.4,31.0
2021-08-01T09:26:00Z,00000200,00000000,0002.54,0001.72,0001.15,0000.24,0000.35,0000.47,0000.73,0001.17,0000.85,18.7,24.9,09.8,06.7,0679.4,31.0
2021-08-01T09:27:00Z,00000200,00000000,0002.35,0001.86,0000.92,0000.82,0000.29,0000.04,0000.90,0000.62,0000.12,18.7,24.9,09.9,06.8,0679.4,31.0
2021-08-01T09:28:00Z,00000200,00000000,0001.72,0001.15,0000.74,-000.21,0000.10,-000.06,0000.00,0000.29,0000.13,18.7,24.9,09.8,06.7,0679.4,31.0
2021-08-01T09:29:00Z,00000200,00000000,0002.57,0001.34,0000.32,0000.66,0000.35,0000.23,0000.09,0000.43,0000.12,18.7,24.9,09.7,06.6,0679.4,31.0
2021-08-01T09:30:00Z,00000200,00000000,0001.69,0001.34,0000.74,0000.29,0000.15,0000.25,0001.14,0000.15,0000.65,18.7,24.9,09.5,06.5,0679.4,31.0
2021-08-01T09:31:00Z,00000200,00000000,0002.02,0001.58,0000.73,0000.55,0000.59,-000.04,0000.46,0000.88,0000.29,18.7,24.9,09.5,06.5,0679.4,31.0
2021-08-01T09:32:00Z,00000200,00000000,0001.80,0001.08,0000.44,0000.39,0000.04,0000.04,0000.03,0000.23,0000.21,18.7,24.9,09.4,06.5,0679.5,31.0
2021-08-01T09:33:00Z,00000200,00000000,0001.29,0001.39,0000.24,0000.12,0000.18,-000.05,0000.60,0000.24,0000.56,18.7,24.9,09.5,06.5,0679.5,31.0
2021-08-01T09:34:00Z,00000200,00000000,0002.18,0001.48,0000.70,0000.42,0000.23,0000.61,0000.56,0000.37,0000.09,18.8,25.0,09.4,06.5,0679.5,31.0
2021-08-01T09:35:00Z,00000200,00000000,0001.61,0002.02,0001.13,0000.65,0000.17,0000.21,0000.31,0000.26,0000.01,18.8,25.0,09.5,06.5,0679.4,31.0
2021-08-01T09:36:00Z,00000200,00000000,0001.43,0000.96,0000.39,0000.36,0000.10,0000.20,0000.19,0000.01,0000.57,18.8,25.0,09.4,06.4,0679.4,31.0
2021-08-01T09:37:00Z,00000200,00000000,0001.56,0001.22,0000.50,0000.02,0000.27,-000.08,0000.61,0000.72,0000.15,18.8,25.0,09.2,06.3,0679.4,31.0
2021-08-01T09:38:00Z,00000200,00000000,0001.50,0001.02,0000.27,0000.52,0000.15,0000.08,0000.42,0000.37,0000.33,18.8,25.0,09.2,06.3,0679.4,31.0
2021-08-01T09:39:00Z,00000200,00000000,0002.03,0001.60,0000.46,0000.62,0000.47,0000.23,0000.78,0000.59,0000.48,18.8,25.0,09.3,06.4,0679.5,31.0
2021-08-01T09:40:00Z,00000200,00000000,0001.89,0001.53,0000.64,0000.67,0000.01,0000.11,0000.78,0000.80,0000.87,18.8,25.0,09.6,06.6,0679.5,31.0
2021-08-01T09:41:00Z,00000200,00000000,0000.68,0001.30,0000.49,0000.07,-000.01,-000.05,0002.84,0002.75,0001.76,18.8,25.0,09.7,06.7,0679.4,31.0
2021-08-01T09:42:00Z,00000200,00000000,0001.13,0000.99,0000.38,0000.35,0000.12,-000.06,0001.62,0001.38,0001.03,18.8,25.0,09.6,06.6,0679.4,31.0
2021-08-01T09:43:00Z,00000200,00000000,0001.45,0000.70,0000.33,0000.11,0000.27,0000.25,0000.03,0000.09,0000.08,18.8,25.0,09.6,06.6,0679.4,31.0
2021-08-01T09:44:00Z,00000200,00000000,0001.29,0000.44,0000.56,0000.38,-000.18,0000.26,0000.57,0000.33,0000.31,18.8,25.0,09.5,06.5,0679.4,31.0
2021-08-01T09:45:00Z,00000200,00000000,0001.22,0001.20,0000.37,0000.51,0000.31,0000.00,0000.39,0000.29,0000.13,18.8,25.0,09.5,06.5,0679.4,31.0
2021-08-01T09:46:00Z,00000200,00000000,0001.09,0001.06,0000.22,0000.51,-000.07,0000.12,0000.08,0000.09,0000.19,18.8,25.0,09.6,06.5,0679.4,31.0
2021-08-01T09:47:00Z,00000200,00000000,0001.22,0000.83,0000.30,0000.15,-000.03,-000.01,0000.33,0000.42,0000.38,18.8,25.0,09.5,06.5,0679.4,31.0
2021-08-01T09:48:00Z,00000200,00000000,0001.20,0000.99,0000.24,0000.70,0000.07,0000.18,0000.08,0000.00,-000.07,18.8,25.0,09.4,06.5,0679.4,31.0
2021-08-01T09:49:00Z,00000200,00000000,0000.83,0001.04,0000.56,-000.16,0000.27,0000.17,0000.32,0000.07,0000.25,18.8,25.0,09.4,06.4,0679.4,31.0
2021-08-01T09:50:00Z,00000200,00000000,0001.22,0000.79,0000.59,0000.51,0000.09,0000.40,0000.26,0000.75,0000.25,18.8,25.0,09.4,06.5,0679.4,31.0
2021-08-01T09:51:00Z,00000200,00000000,0000.77,0001.28,0000.64,0000.82,0000.19,-000.04,0001.11,0000.75,0000.61,18.8,25.0,09.4,06.4,0679.4,31.0
2021-08-01T09:52:00Z,00000200,00000000,0002.91,0001.36,0000.57,0000.23,0000.34,0000.15,0000.07,0000.18,0000.23,18.8,25.0,09.6,06.6,0679.3,31.0
2021-08-01T09:53:00Z,00000200,00000000,0001.50,0001.00,0000.68,0001.07,0000.12,-000.15,0000.31,0000.33,0000.11,18.8,25.0,09.5,06.5,0679.3,31.0
2021-08-01T09:54:00Z,00000200,00000000,0000.86,0001.34,0000.49,-000.16,0000.21,-000.27,0000.34,0000.31,0000.56,18.8,25.0,09.6,06.6,0679.4,31.0
2021-08-01T09:55:00Z,00000200,00000000,0002.13,0001.36,0000.45,0000.74,0000.16,0000.00,0000.61,0000.31,0000.03,18.8,25.0,09.5,06.5,0679.3,31.0
2021-08-01T09:56:00Z,00000200,00000000,0001.97,0001.14,0000.47,0000.70,0000.41,0000.31,0000.34,0000.50,0000.19,18.8,25.0,09.5,06.5,0679.2,31.0
2021-08-01T09:57:00Z,00000200,40000000,,,,,,,-000.03,-000.19,0000.22,18.8,25.0,09.8,06.7,0679.2,31.0
2021-08-01T09:58:00Z,00000200,60000000,,,,,,,-000.05,0000.12,-000.34,18.6,25.1,09.6,06.4,0678.3,31.0
2021-08-01T09:59:00Z,00000200,20000000,,,,,,,0000.42,0000.10,0000.57,18.6,25.2,09.5,06.4,0678.3,31.0
